Weather Roundup
Issued by NWS

Home | Current Version | Previous Version | Text Only | Print | Product List | Glossary On
Versions: 1 2 3 4 5 6 7 8 9 10 11 12 13 14 15 16 17 18 19 20 21 22 23 24 25 26 27 28 29 30 31 32 33 34 35 36 37 38 39 40 41 42 43 44 45 46 47 48 49 50
000
NZUS93 KARX 282010
HRRWXR

CURRENT HOURLY OBSERVATIONS ACROSS
MUCH OF THE UPPER MISSISSIPPI VALLEY
NATIONAL WEATHER SERVICE LA CROSSE WI
300 PM CDT SAT MAR 28 2015


...SOUTHEAST MINNESOTA...


CITY           SKY/WX    TMP DP  RH WIND       PRES   REMARKS
ROCHESTER      SUNNY     34  20  56 S15       30.20F WCI  24
ROCHESTER/MAYO FAIR      36  17  44 S14G20    30.21F WCI  27
WINONA         SUNNY     39  12  33 S7        30.24F WCI  34
AUSTIN         SUNNY     39  19  45 S8        30.18F WCI  34
ALBERT LEA     SUNNY     43  19  39 S14G20    30.16F
DODGE CENTER   SUNNY     36  25  64 SE13      30.19F WCI  27
PRESTON        SUNNY     34  18  51 S13       30.21F WCI  25
OWATONNA       SUNNY     39  19  45 S14       30.17F WCI  31
FARIBAULT      SUNNY     39  19  45 SE14G20   30.18F WCI  31
$$

...ELSEWHERE IN MINNESOTA...


CITY           SKY/WX    TMP DP  RH WIND       PRES   REMARKS
MINNEAPOLIS    MOSUNNY   40  15  36 S14G24    30.18F WCI  32
INTNL FALLS    MOSUNNY   43  11  27 S14G24    29.96F
DULUTH         SUNNY     42   9  25 SW15      30.06F
RED WING       SUNNY     39  12  33 SW13      30.20F WCI  32
REDWOOD FALLS  CLOUDY    44  26  49 S20G28    30.08F
MANKATO        SUNNY     43  21  42 S16       30.14F
WORTHINGTON    CLOUDY    43  27  52 S18G25    30.08F
FAIRMONT       MOSUNNY   45  19  36 S18G26    30.12F
$$

...SOUTHWEST WISCONSIN...


CITY           SKY/WX    TMP DP  RH WIND       PRES   REMARKS
LA CROSSE      SUNNY     42  11  28 S14       30.24F
PRAIRIE DU CHI SUNNY     38  11  32 CALM      30.26F
BOSCOBEL       SUNNY     39  15  37 SW7       30.28F WCI  34
LONE ROCK      SUNNY     37  10  32 S8        30.28F WCI  31
PLATTEVILLE    SUNNY     38  15  38 S7        30.26F WCI  33
FORT MC COY    SUNNY     41   8  26 S10       30.24F
CAMP DOUGLAS   SUNNY     41  10  28 S9        30.22F
VIROQUA        FAIR      37  14  39 SW9       30.23F WCI  30
WIS DELLS      SUNNY     39   9  28 S7        30.24F WCI  34
$$

...ELSEWHERE IN WISCONSIN...


CITY           SKY/WX    TMP DP  RH WIND       PRES   REMARKS
MILWAUKEE      MOSUNNY   33  15  47 SE12      30.30F WCI  24
MADISON        MOSUNNY   37   9  31 S9        30.27F WCI  30
GREEN BAY      SUNNY     36  19  50 SW12      30.26F WCI  28
EAU CLAIRE     SUNNY     42   9  25 S13       30.18F
BLACK RVR FLS  FAIR      42   7  23 SW9       30.22F
MEDFORD        SUNNY     35  14  41 S9        30.17F WCI  28
WAUSAU         SUNNY     37   8  30 SW10      30.18F WCI  30
WIS RAPIDS     SUNNY     40   3  21 S7        30.23F
MARSHFIELD     SUNNY     42   9  25 S13G18    30.19F
RICE LAKE      SUNNY     41   9  27 S9G17     30.18F
$$

...NORTHEAST IOWA...


CITY           SKY/WX    TMP DP  RH WIND       PRES   REMARKS
DECORAH        SUNNY     36  16  44 SE7       30.22F WCI  30
MASON CITY     SUNNY     44  20  38 S15       30.18F
CHARLES CITY   SUNNY     41  18  38 S12G17    30.20F
OELWEIN        SUNNY     41  16  36 S10G18    30.23F
$$

...ELSEWHERE IN IOWA...


CITY           SKY/WX    TMP DP  RH WIND       PRES   REMARKS
DES MOINES     MOSUNNY   49  15  25 S13       30.19F
IOWA CITY      SUNNY     42  12  29 SE10      30.28F
FORT DODGE     SUNNY     48  19  32 SE12G17   30.16F
$$

...NORTHERN ILLINOIS...


CITY           SKY/WX    TMP DP  RH WIND       PRES   REMARKS
CHICAGO-OHARE  SUNNY     34   6  31 VRB3      30.31F
CHICAGO-MIDWAY SUNNY     34   5  29 E10       30.32F WCI  26
MOLINE         SUNNY     41  10  28 S9        30.29F
ROCKFORD       SUNNY     39  10  30 VRB3      30.31F
PEORIA         SUNNY     41  11  29 S7        30.30F
$$

NOTE: "FAIR" INDICATES FEW OR NO CLOUDS BELOW 12,000 FEET WITH NO
SIGNIFICANT WEATHER AND/OR OBSTRUCTIONS TO VISIBILITY. WIND
SPEEDS ARE IN MILES-PER-HOUR.



USA.gov is the U.S. government's official web portal to all federal, state and local government web resources and services.